Location: Unspecified
(0.0000°N, 0.0000°E)
Time: 01:23:03
(UTC+00:00)

deb Explorer IX - Pass Details

Date: 22 November 2019
Orbit: 546 x 1104 km, 38.8° (Epoch: 11 December)

Event Time Altitude Azimuth Distance (km) Brightness Sun altitude
Rises 06:33:17 0° 340° (NNW) 2,927 ? 11.1°
Reaches altitude 10° 06:36:47 10° 6° (N) 1,924 ? 11.9°
Maximum altitude 06:39:00 14° 37° (NE) 1,654 ? 12.4°
Drops below altitude 10° 06:41:08 10° 68° (ENE) 1,841 ? 12.9°
Sets 06:44:20 0° 95° (E) 2,702 ? 13.7°
